Probability
0 0 0 0 0 0 0 0 0 0 0 0 0 0 0 0 0 0 0 0 0 0 0 0 0 0 0 0 0 0 0 0 0 0 0 0 0 0 0 0 0 0 0 0
0 0 0 0 0 0 0 0 0 0 0 0 0 0 0 0 0 0 0 0 0 0 0 0 0 0 0 0 0 0 0 0 0 0 0 0 0 0 0 0 0 0 0 0
0 0 0 0 0 0 0 0 0 0 0 0 0 0 0 0 0 0 0 0 0 0 0 0 0 0 0 0 0 0 0 0 0 0 0 0 0 0 0 0 0 0 0 0
0 0 0 0 0 0 0 0 0 0 0 0 0 0 0 0 0 0 0 0 0 0 0 0 0 0 0 0 0 0 0 0 0 0 0 0 0 0 0 0 0 0 0 0
0 0 0 0 0 0 0 0 0 0 0 0 0 0 0 0 0 0 0 0 0 0 0 0 0 0 0 0 0 0 0 0 0 0 0 0 0 0 0 0 0 0 0 0
0 0 0 0 0 0 0 0 0 0 0 0 0 0 0 0 0 0 0 0 0 0 0 0 0 0 0 0 0 0 0 0 0 0 0 0 0 0 0 0 0 0 0 0
0 0 0 0 0 0 0 0 0 0 0 0 0 0 0 0 0 0 0 0 0 0 0 0 0 0 0 0 0 0 0 0 0 0 0 0 0 0 0 0 0 0 0 0
0 0 0 0 0 0 0 0 0 0 0 0 0 0 0 0 0 0 0 0 0 0 0 0 0 0 0 0 0 0 0 0 0 0 0 0 0 0 0 0 0 0 0 0
0 0 0 0 0 0 0 0 0 0 0 0 0 0 0 0 0 0 0 0 0 0 0 0 0 0 0 0 0 0 0 0 0 0 0 0 0 0 0 0 0 0 0 0
0 0 0 0 0 0 0 0 0 0 0 0 0 0 0 0 0 0 0 0 0 0 0 0 0 0 0 0 0 0 0 0 0 0 0 0 0 0 0 0 0 0 0 0
0 0 0 0 0 0 0 0 0 0 0 0 0 0 0 0 0 0 0 0 0 0 0 0 0 0 0 0 0 0 0 0 0 0 0 0 0 0 0 0 0 0 0 0
0 0 0 0 0 0 0 0 0 0 0 0 0 0 0 0 0 0 0 0 0 0 0 0 0 0 0 0 0 0 0 0 0 0 0 0 0 0 0 0 0 0 0 0
0 0 0 0 0 0 0 0 0 0 0 0 0 0 0 0 0 0 0 0 0 0 0 0 0 0 0 0 0 0 0 0 0 0 0 0 0 0 0 0 0 0 0 0
0 0 0 0 0 0 0 0 0 0 0 0 0 0 0 0 0 0 0 0 0 0 0 0 0 0 0 0 0 0 0 0 0 0 0 0 0 0 0 0 0 0 0 0
0 0 0 0 0 0 0 0 0 0 0 0 0 0 0 0 0 0 0 0 0 0 0 0 0 0 0 0 0 0 0 0 0 0 0 0 0 0 0 0 0 0 0 0
0 0 0 0 0 0 0 0 0 0 0 0 0 0 0 0 0 0 0 0 0 0 0 0 0 0 0 0 0 0 0 0 0 0 0 0 0 0 0 0 0 0 0 0
0 0 0 0 0 0 0 0 0 0 0 0 0 0 0 0 0 0 0 0 0 0 0 0 0 0 0 0 0 0 0 0 0 0 0 0 0 0 0 0 0 0 0 0
0 0 0 0 0 0 0 0 0 0 0 0 0 0 0 0 0 0 0 0 0 0 0 0 0 0 0 0 0 0 0 0 0 0 0 0 0 0 0 0 0 0 0 0
0 0 0 0 0 0 0 0 0 0 0 0 0 0 0 0 0 0 0 0 0 0 0 0 0 0 0 0 0 0 0 0 0 0 0 0 0 0 0 0 0 0 0 0
0 0 0 0 0 0 0 0 0 0 0 0 0 0 0 0 0 0 0 0 0 0 0 0 0 0 0 0 0 0 0 0 0 0 0 0 0 0 0 0 0 0 0 0
0 0 0 0 0 0 0 0 0 0 0 0 0 0 0 0 0 0 0 0 0 0 0 0 0 0 0 0 0 0 0 0 0 0 0 0 0 0 0 0 0 0 0 0
0 0 0 0 0 0 0 0 0 0 0 0 0 0 0 0 0 0 0 0 0 0 0 0 0 0 0 0 0 0 0 0 0 0 0 0 0 0 0 0 0 0 0 0
0 0 0 0 0 0 0 0 0 0 0 0 0 0 0 0 0 0 0 0 0 0 0 0 0 0 0 0 0 0 0 0 0 0 0 0 0 0 0 0 0 0 0 0
0 0 0 0 0 0 0 0 0 0 0 0 0 0 0 0 0 0 0 0 0 0 0 0 0 0 0 0 0 0 0 0 0 0 0 0 0 0 0 0 0 0 0 0
0 0 0 0 0 0 0 0 0 0 0 0 0 0 0 0 0 0 0 0 0 0 0 0 0 0 0 0 0 0 0 0 0 0 0 0 0 0 0 0 0 0 0 0
0 0 0 0 0 0 0 0 0 0 0 0 0 0 0 0 0 0 0 0 0 0 0 0 0 0 0 0 0 0 0 0 0 0 0 0 0 0 0 0 0 0 0 0
Wind_Speed
2 3 3 5 5 3 3 2 3 3 2 1 5 9 11 7 5 7 7 7 7 8 6 3 4 4 4 4 5 5 5 4 4 2 2 2 2 1 1 1 1 1 1 1
3 3 4 2 2 2 2 2 3 3 2 1 4 10 10 7 6 7 8 8 8 6 4 3 4 4 5 6 6 6 6 5 5 3 2 2 2 1 1 1 1 1 1 1
5 2 1 3 3 3 2 4 4 3 3 2 4 8 6 5 3 4 5 6 6 7 7 5 5 5 5 6 6 6 6 5 5 4 2 2 1 1 1 1 1 1 1 1
2 2 1 2 2 3 3 3 3 1 1 3 1 6 8 4 5 5 6 6 7 7 6 6 6 5 6 7 5 5 5 5 5 5 5 5 4 3 3 2 1 1 2 2
2 1 2 2 3 4 3 1 2 1 1 3 1 3 10 2 5 7 6 7 7 6 6 6 6 7 6 5 4 4 4 5 5 6 6 6 4 3 1 1 2 2 2 2
1 1 2 3 1 3 3 3 3 3 2 4 4 4 10 5 7 5 5 5 5 5 4 4 4 3 3 3 3 4 4 5 5 6 6 7 6 4 3 3 3 2 2 2
1 1 1 1 3 2 2 4 3 4 2 6 2 4 12 8 6 6 6 5 4 4 4 3 3 3 3 4 4 4 5 5 5 6 7 7 7 6 7 5 4 3 3 3
3 3 3 2 3 5 3 5 6 5 5 5 2 8 11 6 4 5 5 4 3 3 3 4 4 4 4 5 5 5 6 6 6 7 7 6 6 5 5 5 4 5 4 4
6 4 1 1 1 5 5 3 3 4 1 3 7 8 11 4 3 3 3 2 3 4 4 4 4 4 4 5 6 6 7 6 6 7 6 6 6 6 5 5 4 4 4 3
5 3 0 0 1 1 2 5 4 4 3 5 7 6 6 5 4 3 3 4 4 3 3 3 3 4 4 4 5 5 6 7 6 6 6 6 6 6 5 4 5 5 4 4
3 4 0 1 5 7 4 3 4 3 4 4 5 9 7 6 4 4 4 4 4 3 3 3 3 3 3 3 4 5 5 5 5 5 5 6 6 6 5 6 6 6 5 5
4 4 2 5 2 1 4 5 7 5 5 4 4 10 4 4 3 2 4 4 3 3 3 3 3 2 2 3 3 4 5 5 5 5 5 5 5 5 6 6 6 5 6 5
6 5 2 2 1 1 3 4 4 3 3 5 6 11 2 1 3 3 4 5 3 3 3 3 2 2 3 3 4 4 5 5 4 4 4 5 5 6 7 7 6 5 5 5
5 4 7 9 5 6 5 6 7 6 5 7 11 11 9 7 6 6 5 5 4 3 3 3 3 3 3 3 4 4 4 4 4 4 4 5 6 6 6 6 5 6 5 5
4 4 5 5 3 3 6 8 10 12 11 11 10 11 14 9 7 7 5 4 4 4 4 4 4 3 3 3 3 3 4 3 3 4 5 6 5 4 4 5 5 5 5 6
3 4 2 4 3 4 7 10 12 14 12 13 12 16 12 8 5 5 5 4 5 6 5 5 4 4 4 4 4 4 4 3 3 4 5 4 4 4 4 4 4 5 5 5
4 4 3 4 1 1 10 13 15 10 10 11 16 15 5 5 6 6 5 4 5 6 5 5 5 5 4 4 4 4 4 3 3 4 4 4 4 4 4 4 4 5 5 5
6 5 3 2 2 10 10 4 10 11 10 11 10 8 7 8 6 4 4 5 6 5 5 5 4 4 4 3 3 3 2 3 3 4 4 4 4 4 4 4 4 4 4 4
6 7 4 3 5 10 9 4 7 8 9 10 13 12 8 4 4 5 4 4 6 5 4 4 3 3 3 2 2 2 2 2 3 4 4 4 4 4 4 5 5 4 3 3
4 4 5 4 5 10 7 2 4 4 6 5 8 9 6 1 2 6 3 2 3 2 2 2 2 1 2 2 1 1 1 2 3 4 4 4 4 5 5 5 4 3 3 3
6 5 7 7 7 11 7 2 5 5 6 2 5 6 4 6 7 4 2 2 2 2 2 1 1 1 2 1 1 1 2 3 5 4 3 3 3 4 4 3 2 2 2 2
10 9 8 7 8 13 4 6 7 6 1 1 2 2 3 4 4 3 2 2 2 2 2 2 1 2 2 1 1 2 3 4 3 2 2 2 3 2 2 2 2 2 2 2
9 9 8 11 11 3 6 7 4 1 2 2 2 2 2 3 3 3 3 3 2 2 2 2 1 2 2 1 1 3 4 3 2 2 2 2 2 1 1 2 2 2 2 2
5 3 4 6 9 6 5 4 3 3 4 3 2 2 2 3 4 4 3 3 3 2 2 2 2 2 3 2 2 3 3 2 1 2 2 1 1 1 1 1 2 2 3 3
6 6 4 7 7 4 5 6 6 4 3 3 3 3 3 4 4 4 4 4 3 3 2 2 2 3 4 3 3 3 2 1 2 2 2 1 1 1 1 1 2 3 3 4
7 9 9 10 7 6 6 4 4 5 5 5 4 4 3 4 5 5 5 4 3 3 3 3 3 4 4 3 3 3 2 1 2 2 2 1 1 1 1 1 1 1 1 2
Wind_Direction
53 86 196 215 209 192 155 174 247 262 280 271 255 268 276 270 248 248 245 241 239 242 243 218 209 202 189 185 185 187 187 182 167 165 172 179 198 205 202 205 181 172 163 134
68 247 237 197 176 161 156 211 265 291 333 277 285 278 271 256 240 235 236 239 241 245 245 222 203 195 195 196 195 193 193 188 185 185 180 179 172 195 198 200 192 195 179 167
173 235 222 150 150 165 212 213 231 258 328 328 317 296 274 265 250 251 236 232 237 230 229 223 210 205 201 204 203 201 197 192 189 174 150 122 100 79 134 201 208 216 203 207
212 281 126 133 184 173 235 222 197 216 318 301 10 294 281 264 282 260 248 239 238 234 227 220 213 211 210 213 206 200 192 186 181 170 173 171 180 194 205 200 205 222 214 213
227 200 143 185 217 173 190 123 132 150 170 301 269 248 280 283 266 259 246 236 235 230 221 218 214 215 215 204 194 194 188 184 181 181 184 185 197 203 183 179 194 209 222 220
219 208 188 194 178 159 142 82 61 48 67 278 228 202 275 235 226 247 246 239 236 232 225 224 220 209 207 194 187 185 189 192 187 185 189 193 197 192 187 202 202 211 222 227
274 236 227 137 107 82 119 100 29 351 345 254 209 220 252 247 230 231 249 256 244 231 222 220 217 210 210 204 201 196 196 201 197 193 197 201 202 197 202 205 206 212 221 229
184 252 207 180 166 164 179 154 164 204 237 278 247 238 254 258 258 256 256 252 244 236 224 222 222 216 213 210 206 204 206 209 203 201 205 204 202 203 211 209 209 215 223 228
183 227 88 152 157 144 150 189 159 129 70 289 267 275 294 269 274 271 265 250 244 240 232 232 232 225 218 212 210 206 209 216 214 210 207 208 206 209 216 214 214 221 228 228
164 187 254 4 91 16 145 147 124 143 182 262 283 267 255 270 273 284 275 260 257 252 247 248 240 230 225 219 214 207 211 216 216 212 212 214 213 216 216 214 222 225 227 227
158 153 190 167 198 188 154 162 157 151 176 186 270 270 229 227 236 245 259 265 260 254 253 249 248 236 231 224 209 210 215 218 217 216 219 218 217 216 213 217 221 224 227 224
162 136 207 236 224 203 192 189 165 175 220 205 231 268 266 220 248 259 277 285 279 264 263 260 260 251 238 230 221 217 219 220 221 217 219 223 221 214 217 225 225 223 228 224
149 140 116 335 302 220 224 210 190 157 146 183 207 261 280 299 306 295 284 287 284 279 281 280 273 257 247 237 229 225 222 221 218 210 217 222 221 218 223 228 228 226 226 225
139 164 189 207 214 179 204 206 184 170 198 220 228 254 281 289 294 296 286 277 276 271 268 270 272 268 260 249 239 234 233 223 212 209 215 223 227 226 228 229 227 226 220 219
147 207 226 245 239 196 218 213 196 206 212 217 238 242 259 266 266 272 272 272 283 287 282 271 271 275 272 266 258 248 243 230 214 213 221 229 234 234 231 230 226 220 218 221
163 198 198 263 232 228 253 237 216 223 228 238 258 265 259 264 267 268 266 262 272 280 279 279 278 276 267 263 262 257 248 239 220 220 229 234 233 232 232 233 228 221 221 221
176 162 176 253 266 342 260 226 206 210 211 204 231 247 267 275 267 263 263 256 257 268 275 276 274 265 261 257 252 250 247 240 227 231 236 232 229 234 236 232 226 226 222 215
168 163 186 218 122 236 243 198 194 210 228 218 237 257 256 255 270 266 242 244 261 266 270 273 275 276 274 269 269 267 256 233 229 236 240 235 229 235 237 229 227 229 221 218
183 167 173 184 231 269 285 234 176 192 248 222 230 251 265 287 317 286 245 232 244 251 257 263 264 270 275 272 272 269 266 251 244 248 248 242 232 232 229 229 230 226 219 222
180 176 178 187 214 243 248 218 172 142 266 232 212 240 254 174 264 274 298 273 273 281 277 277 286 292 283 285 268 224 256 257 258 260 259 251 238 231 228 228 226 226 217 221
170 188 203 207 231 258 256 199 138 182 245 216 202 227 217 203 225 261 317 318 295 293 296 301 305 288 279 289 223 230 249 256 264 272 270 259 245 239 237 231 218 208 210 213
181 181 194 182 216 246 200 144 187 218 249 179 206 219 214 232 259 274 282 296 310 317 322 325 313 303 307 289 216 258 265 274 284 281 273 268 256 239 230 219 214 191 186 196
205 196 190 199 219 229 172 194 214 187 218 242 244 259 223 238 256 265 270 281 291 292 300 308 291 301 315 307 244 261 284 301 294 288 279 280 280 254 222 204 202 194 190 199
235 206 203 245 255 250 236 235 239 220 227 242 247 258 231 242 254 260 267 276 282 287 288 297 296 290 296 300 284 273 295 303 280 270 277 279 264 260 234 215 202 199 204 210
213 179 208 246 265 295 268 231 230 234 242 251 258 247 236 236 252 252 260 265 268 277 282 280 269 270 277 287 285 293 300 291 270 273 276 275 253 234 230 227 224 223 223 214
200 190 198 233 223 218 250 245 223 232 249 248 252 266 255 231 246 253 255 257 259 264 269 276 276 275 280 282 283 291 290 250 238 267 275 265 256 236 216 219 310 313 274 272